Tracking 28799 objects as of 18-Apr-2024
HD Live streaming from Space Station
objects crossing your sky now

CZ-2D DEB

Track CZ-2D DEB now!
10-day predictions


NORAD ID: 36291
Int'l Code: 2008-056G
Perigee: 758.9 km
Apogee: 1,010.8 km
Inclination: 98.5 °
Period: 102.5 minutes
Semi major axis: 7255 km
RCS: 0.0013 m2 (small)
Launch date: November 5, 2008
Source: People's Republic of China (PRC)
Launch site: Jiuquan Satellite Launch Center, China (JSC)

Note: This is SATELLITE DEBRIS
Your satellite tracking list
Your tracking list is empty




NASA's NSSDC Master Catalog

Two Line Element Set (TLE):
1 36291U 08056G   24100.97138134  .00001376  00000-0  77304-3 0  9994
2 36291  98.4962 169.9144 0173593 183.2171 176.7896 14.04669596784188
Source of the keplerian elements: AFSPC